Location: Unspecified
(49.2170°N, 0.0000°E)
Time: 17:37:52
(UTC+00:00)

A-11 Canister half - Pass Details

Date: 27 January 2021
Orbit: 1516 x 1684 km, 47.2° (Epoch: 05 March)

Event Time Altitude Azimuth Distance (km) Brightness Sun altitude
Rises 17:47:50 0° 194° (SSW) 4,788 12.0 -9.8°
Reaches altitude 10° 17:51:44 10° 181° (S) 3,778 11.3 -10.4°
Maximum altitude 17:58:47 24° 133° (SE) 2,797 10.1 -11.5°
Enters shadow 18:04:22 14° 91° (E) 3,417 10.2 -12.4°
